sat.trackr.live / text

‹ back to catalog

QIANFAN-132

NORAD 69078 · 2026-104F

PAYLOAD ACTIVE UNKNOWN

§ Identity

Operator
Country
PRC
Launch date
2026-05-12
Launch site
TAISC
Launch vehicle
Mass (kg)
RCS (m²)

External: N2YO · Heavens-Above · Gunter

§ Orbital elements

Epoch: 2026-09-20T03:59:01.819392Z

Period
106.59 min
Inclination
88.9901°
Eccentricity
0.0002393
Mean motion
13.51022070 rev/d
Perigee alt
1,066.7 km
Apogee alt
1,070.3 km
Semi-major
7,446.6 km
B*
7.3899e-5
RAAN
331.8293°
Arg perigee
99.7013°
Mean anomaly
260.4408°
Rev number
1,795

§ Raw data

QIANFAN-1321 69078U 26104F   26263.16599328  .00000060  00000+0  73899-4 0  99902 69078  88.9901 331.8293 0002393  99.7013 260.4408 13.51022070 17959

JSON: /api/v1/satellites/69078 · /tle

For live sub-satellite position, see the globe view (requires WebGL).

§ Visibility from observer

Set your observer location to see the next 7 days of passes ≥ 10°. The values pass through the URL so the page stays shareable.

No JS? Fill the form by hand. The geolocation button needs JavaScript.